Location: Ravensburg
(47.7866°N, 9.6124°E)
Time: 19:06:48
(UTC+01:00)

ISS - Pass Details

Date: 15 November 2025
Orbit: 416 x 421 km, 51.6° (Epoch: 05 December)

Event Time Altitude Azimuth Distance (km) Brightness Sun altitude
Rises 18:06:17 0° 223° (SW) 2,359 1.0 -13.7°
Reaches altitude 10° 18:08:27 10° 215° (SW) 1,496 -0.3 -14.1°
Maximum altitude 18:11:36 38° 146° (SE) 658 -3.0 -14.6°
Enters shadow 18:12:40 29° 104° (ESE) 801 -2.9 -14.8°
